Change the Weather History Date:

Friday, December 21, 2012

  Actual Average Record
Temperature  
Mean Temperature 21 °F 25 °F  
Max Temperature 40 °F 37 °F 71 °F (1933)
Min Temperature 2 °F 13 °F -23 °F (1983)
Degree Days  
Heating Degree Days 44 40  
Month to date heating degree days 692 821  
Cooling Degree Days 0 0  
Month to date cooling degree days 0 0  
Year to date cooling degree days 1077 768  
Moisture  
Dew Point 12 °F    
Average Humidity 72    
Maximum Humidity 96    
Minimum Humidity 48    
Precipitation  
Precipitation 0.00 in 0.01 in 0.70 in (1911)
Sea Level Pressure  
Sea Level Pressure 30.23 in    
Wind  
Wind Speed 2 mph (South)    
Max Wind Speed 12 mph    
Max Gust Speed 20 mph    
Visibility 10 miles    
Events      
T = Trace of Precipitation, MM = Missing Value Source: NWS Daily Summary

Daily Weather History Graph

Daily Weather History Graph

Search for Another Location

Airport or City:

Trip Planner

Search our weather history database for the weather conditions in past years. The results will help you decide how hot, cold, wet, or windy it might be!

Date:

Astronomy

Dec. 21, 2012 Rise Set
Actual Time 8:01 AM CST 5:12 PM CST
Civil Twilight 7:30 AM CST 5:43 PM CST
Nautical Twilight 6:55 AM CST 6:18 PM CST
Astronomical Twilight 6:21 AM CST 6:52 PM CST
Moon 1:02 PM CST (12/21) 1:47 AM CST (12/21)
Length of Visible Light 10h 13m
Length of Day
9h 10m
Waxing Gibbous, 65% of the Moon is Illuminated
Dec 21
Waxing Gibbous
Dec 28
Full
Jan 4
Last Quarter
Jan 11
New
Jan 18
First Quarter

Hourly Weather History & Observations

Time (CST) Temp. Windchill Dew Point Humidity Pressure Visibility Wind Dir Wind Speed Gust Speed Precip Events Conditions
12:53 AM 18.0 °F - 10.9 °F 74% 30.28 in 10.0 mi Calm Calm - N/A   Clear
1:53 AM 10.0 °F - 6.1 °F 84% 30.29 in 10.0 mi Calm Calm - N/A   Clear
2:53 AM 8.1 °F - 6.1 °F 92% 30.30 in 10.0 mi Calm Calm - N/A   Clear
3:53 AM 7.0 °F - 3.0 °F 84% 30.30 in 10.0 mi Calm Calm - N/A   Clear
4:53 AM 5.0 °F - 1.9 °F 87% 30.30 in 10.0 mi Calm Calm - N/A   Clear
5:53 AM 5.0 °F - 3.2 °F 92% 30.16 in 10.0 mi Calm Calm - N/A   Clear
6:53 AM 3.9 °F - -0.0 °F 84% 30.32 in 10.0 mi Calm Calm - N/A   Clear
7:53 AM 6.1 °F - 3.9 °F 91% 30.32 in 10.0 mi Calm Calm - N/A   Clear
8:53 AM 8.1 °F - 3.0 °F 80% 30.31 in 10.0 mi Calm Calm - N/A   Clear
9:53 AM 14.0 °F - 8.1 °F 77% 30.30 in 10.0 mi Calm Calm - N/A   Clear
10:53 AM 24.1 °F - 12.0 °F 60% 30.28 in 10.0 mi Calm Calm - N/A   Clear
11:53 AM 30.9 °F - 14.0 °F 50% 30.27 in 10.0 mi Calm Calm - N/A   Clear
12:53 PM 37.0 °F 31.0 °F 21.0 °F 52% 30.22 in 10.0 mi WSW 8.1 mph - N/A   Clear
1:53 PM 39.0 °F 34.0 °F 23.0 °F 53% 30.21 in 10.0 mi WSW 6.9 mph - N/A   Clear
2:53 PM 39.9 °F 33.4 °F 23.0 °F 51% 30.19 in 10.0 mi WSW 10.4 mph - N/A   Clear
3:53 PM 39.9 °F 37.8 °F 21.0 °F 47% 30.18 in 10.0 mi SSW 3.5 mph - N/A   Clear
4:53 PM 37.0 °F - 21.0 °F 52% 30.19 in 10.0 mi Calm Calm - N/A   Clear
5:53 PM 33.1 °F 27.7 °F 19.9 °F 59% 30.19 in 10.0 mi SSE 5.8 mph - N/A   Clear
6:53 PM 30.0 °F 24.1 °F 19.0 °F 64% 30.19 in 10.0 mi SSE 5.8 mph - N/A   Clear
7:53 PM 23.0 °F 17.0 °F 16.0 °F 74% 30.19 in 10.0 mi SE 4.6 mph - N/A   Clear
8:53 PM 21.9 °F 13.4 °F 14.0 °F 72% 30.19 in 10.0 mi SSE 6.9 mph - N/A   Clear
9:53 PM 19.9 °F - 12.0 °F 71% 30.17 in 10.0 mi Calm Calm - N/A   Clear
10:53 PM 28.0 °F 21.7 °F 18.0 °F 66% 30.14 in 10.0 mi South 5.8 mph - N/A   Clear
11:53 PM 23.0 °F - 17.1 °F 78% 30.12 in 10.0 mi Calm Calm - N/A   Clear